CZ-5 R/B

Last updated on Jan. 25, 2020, 12:02 a.m. UTC

1 44911U 19097B   20022.78965220 -.00000094  00000-0  19943-2 0  9992
2 44911  17.6598 303.4800 8467117 202.2962  66.7687  0.96018788   267

Satellite is not in orbit.